Cloud_Cover
100 100 100 100 100 100 100 100 100 100 100 100 100 100 100 100 100 100 100 100 100 100 100 100 100 100 100 100 100 100 100 100
100 100 100 100 100 100 100 99 10 42 41 54 100 100 100 100 100 100 100 100 100 100 100 100 100 100 100 100 100 100 100 100
100 100 100 100 100 100 35 2 3 2 4 5 5 5 35 86 96 100 100 99 100 100 100 100 100 100 100 100 100 100 100 100
100 100 100 100 93 11 0 0 0 0 3 4 5 28 86 91 79 35 39 100 100 100 100 100 100 100 100 100 100 100 100 100
100 100 100 12 3 4 5 6 21 38 10 2 4 4 5 5 6 53 100 100 98 98 100 100 100 93 76 99 100 100 100 100
100 100 59 83 39 9 6 5 5 0 5 5 3 0 0 2 5 12 84 86 100 100 100 100 76 99 100 99 84 100 100 100
100 100 99 38 100 100 92 30 5 5 2 0 0 1 5 5 5 5 5 5 48 26 50 43 80 100 100 100 100 100 100 100
100 91 96 99 72 56 56 12 1 0 14 8 5 5 5 5 5 5 5 5 5 5 5 5 5 5 52 100 100 100 100 100
100 100 97 30 56 7 5 1 0 4 42 100 64 73 26 33 5 56 8 6 30 58 8 5 5 5 5 16 48 54 85 75
100 51 5 5 5 0 0 25 56 94 100 100 100 100 100 100 100 100 84 20 89 90 5 5 7 6 5 5 4 5 5 4
90 77 5 1 0 0 0 0 15 62 100 100 100 100 100 100 30 15 63 90 100 100 100 100 100 100 100 100 100 72 15 5
5 5 0 0 0 0 0 0 4 31 80 100 100 82 75 100 100 51 5 29 99 100 100 100 100 100 100 100 100 100 100 100
5 0 0 0 0 0 0 0 0 5 3 20 98 100 100 66 5 5 5 0 0 2 3 4 9 3 5 2 5 32 46 86
0 0 0 0 0 0 0 0 4 5 44 100 100 90 5 5 5 0 0 0 0 0 0 0 0 0 0 0 0 3 35 12
0 0 0 0 0 0 0 0 5 20 88 100 99 8 5 4 5 0 0 0 0 0 0 0 0 0 0 2 1 2 5 5
0 0 0 0 0 0 0 11 71 92 100 59 6 5 1 0 0 0 0 0 0 0 0 0 0 0 0 3 14 9 64 5
5 5 5 1 0 0 4 25 20 93 93 74 5 0 0 0 0 0 0 0 0 0 0 0 0 5 5 0 2 5 5 5
5 5 5 5 0 4 5 5 88 59 63 8 2 0 0 0 0 0 0 0 0 0 0 5 5 5 4 5 0 5 8 62
5 5 5 5 0 2 5 37 37 66 65 6 4 0 0 0 0 0 0 0 0 0 1 1 4 5 5 2 60 41 5 5